Home > Time Zones > World Clock > Weather > Spain > Palma > Past weeks

Flag for Spain Weather past 2 weeks in Palma, Majorca, Spain

Now
57 °F

Scattered clouds.


Feels Like: 53 °F
Forecast: 46 / 54 °F
Wind: 23 mph from Northwest

Location: Palma De Mallorca / Son San Juan

Current Time: Jan 31, 2015 at 3:51:24 PM

Latest Report: Jan 31, 2015 at 3:00 PM


Visibility: N/A

Pressure: 29.27 "Hg

Humidity: 55%

Dew point: 41 °F

Location of PalmaLocation

Historic Weather in Palma — Graph

°F

Palma temperature yesterday

Maximum temperature yesterday: 63 °F (at 8:30 AM)
Minimum temperature yesterday: 50 °F (at 11:00 PM)
Average temperature yesterday: 58 °F

Past Weeks' High & Low Weather Summary

 TemperatureHumidityPressure
High63 °F (Jan 30, 8:30 AM)100% (Jan 17, 3:30 AM)30.33 "Hg (Jan 17, 3:30 AM)
Low30 °F (Jan 18, 5:30 AM)32% (Jan 25, 5:30 AM)29.15 "Hg (Jan 31, 5:00 AM)
Average49 °F78%29.92 "Hg
* Reported Jan 16 2:00 PM — Jan 31 2:30 PM, Palma, Weather by CustomWeather, © 2014

Note: Actual official high and low records may vary slightly from our data, if they occured in-between our weather recording intervals... More about our weather records

Advertising

Palma weather history for previous 24 hours

 ConditionsComfort  
Time TempWeatherWind HumidityBarometerVisibility
2:30 PM
Jan 31
57 °FScattered clouds.23 mph59%29.27 "HgN/A
2:00 PM55 °FScattered clouds.23 mph63%29.27 "HgN/A
1:30 PM55 °FScattered clouds.23 mph59%29.27 "HgN/A
1:00 PM55 °FLight rain. Scattered clouds.25 mph67%29.24 "Hg6 mi
12:30 PM55 °FBroken clouds.15 mph63%29.24 "HgN/A
12:00 PM57 °FBroken clouds.17 mph55%29.24 "HgN/A
11:30 AM57 °FScattered clouds.16 mph59%29.24 "HgN/A
11:00 AM57 °FPartly sunny.8 mph72%29.21 "HgN/A
10:30 AM55 °FPartly sunny.9 mph77%29.18 "HgN/A
10:00 AM55 °FPartly sunny.15 mph77%29.21 "HgN/A
9:30 AM55 °FPartly sunny.7 mph72%29.18 "HgN/A
9:00 AM54 °FPartly sunny.6 mph77%29.18 "HgN/A
8:30 AM52 °FScattered clouds.2 mph82%29.18 "HgN/A
8:00 AM54 °FScattered clouds.No wind82%29.18 "HgN/A
7:30 AM52 °FPassing clouds.6 mph88%29.18 "HgN/A
7:00 AM52 °FPassing clouds.3 mph88%29.18 "HgN/A
6:30 AM52 °FRain. Passing clouds.5 mph88%29.18 "HgN/A
6:00 AM54 °FLight rain. Passing clouds.10 mph82%29.18 "HgN/A
5:30 AM55 °FPassing clouds.8 mph82%29.18 "HgN/A
5:00 AM57 °FPassing clouds.8 mph82%29.15 "HgN/A
4:00 AM57 °FPassing clouds.12 mph88%29.18 "HgN/A
3:30 AM57 °FLight rain. Passing clouds.10 mph94%29.18 "HgN/A
3:00 AM57 °FPassing clouds.12 mph88%29.21 "HgN/A
2:30 AM57 °FPassing clouds.12 mph94%29.21 "HgN/A
2:00 AM57 °FPassing clouds.9 mph88%29.21 "HgN/A
1:30 AM57 °FPassing clouds.9 mph88%29.24 "HgN/A
1:00 AM57 °FPassing clouds.6 mph88%29.24 "HgN/A
12:30 AM55 °FPassing clouds.6 mph88%29.24 "HgN/A
12:00 AM55 °FPassing clouds.7 mph88%29.27 "HgN/A
11:30 PM
Jan 30
54 °FPassing clouds.1 mph88%29.27 "HgN/A
11:00 PM50 °FPassing clouds.No wind88%29.27 "HgN/A
10:30 PM52 °FPassing clouds.1 mph82%29.30 "HgN/A
10:00 PM52 °FPassing clouds.No wind82%29.30 "HgN/A
9:30 PM52 °FPassing clouds.2 mph82%29.30 "HgN/A
9:00 PM54 °FPassing clouds.2 mph77%29.30 "HgN/A
8:30 PM54 °FPassing clouds.No wind77%29.33 "HgN/A
8:00 PM55 °FPassing clouds.1 mph72%29.33 "HgN/A
7:30 PM55 °FPassing clouds.3 mph72%29.33 "HgN/A
7:00 PM55 °FPassing clouds.2 mph72%29.33 "HgN/A
6:30 PM55 °FPassing clouds.8 mph72%29.36 "HgN/A
6:00 PM55 °FPartly sunny.7 mph72%29.36 "HgN/A
5:30 PM55 °FPartly sunny.9 mph72%29.36 "HgN/A
5:00 PM57 °FPartly sunny.12 mph67%29.36 "HgN/A
4:30 PM57 °FPartly sunny.12 mph67%29.39 "HgN/A
4:00 PM57 °FPartly sunny.10 mph63%29.39 "HgN/A
3:30 PM57 °FPartly sunny.14 mph63%29.36 "HgN/A
3:00 PM57 °FPartly sunny.16 mph59%29.39 "HgN/A
Weather by CustomWeather, © 2014

See weather overviewHow to use our weather pages